SCP
0 0 0 0 0 0 0 0 0 0 0 0 0 0 0 0 0 0 0 0 0 0 0 0 0 0 0 0 0 0 0 0 0 0 0 0 0 0 0 0 0 0 0
0 0 0 0 0 0 0 0 0 0 0 0 0 0 0 0 0 0 0 0 0 0 0 0 0 0 0 0 0 0 0 0 0 0 0 0 0 0 0 0 0 0 0
0 0 0 0 0 0 0 0 0 0 0 0 0 0 0 0 0 0 0 0 0 0 0 0 0 0 0 0 0 0 0 0 0 0 0 0 0 0 0 0 0 0 0
0 0 0 0 0 0 0 0 0 0 0 0 0 0 0 0 0 0 0 0 0 0 0 0 0 0 0 0 0 0 0 0 0 0 0 0 0 0 0 0 0 0 0
0 0 0 0 0 0 0 0 0 0 0 0 0 0 0 0 0 0 0 0 0 0 0 0 0 0 0 0 0 0 0 0 0 0 0 0 0 0 0 0 0 0 0
0 0 0 0 0 0 0 0 0 0 0 0 0 0 0 0 0 0 0 0 0 0 0 0 0 0 0 0 0 0 0 0 0 0 0 0 0 0 0 0 0 0 0
0 0 0 0 0 0 0 0 0 0 0 0 0 0 0 0 0 0 0 0 0 0 0 0 0 0 0 0 0 0 0 0 0 0 0 0 0 0 0 0 0 0 0
0 0 0 0 0 0 0 0 0 0 0 0 0 0 0 0 0 0 0 0 0 0 0 0 0 0 0 0 0 0 0 0 0 0 0 0 0 0 0 0 0 0 0
0 0 0 0 0 0 0 0 0 0 0 0 0 0 0 0 0 0 0 0 0 0 0 0 0 0 0 0 0 0 0 0 0 0 0 0 0 0 0 0 0 0 0
0 0 0 0 0 0 0 0 0 0 0 0 0 0 0 0 0 0 0 0 0 0 0 0 0 0 0 0 0 0 0 0 0 0 0 0 0 0 0 0 0 0 0
0 0 0 0 0 0 0 0 0 0 0 0 0 0 0 0 0 0 0 0 0 0 0 0 0 0 0 0 0 0 0 0 0 0 0 0 0 0 0 0 0 0 0
0 0 0 0 0 0 0 0 0 0 0 0 0 0 0 0 0 0 0 0 0 0 0 0 0 0 0 0 0 0 0 0 0 0 0 0 0 0 0 0 0 0 0
0 0 0 0 0 0 0 0 0 0 0 0 0 0 0 0 0 0 0 0 0 0 0 0 0 0 0 0 0 0 0 0 0 0 0 0 0 0 0 0 0 0 0
0 0 0 0 0 0 0 0 0 0 0 0 0 0 0 0 0 0 0 0 0 0 0 0 0 0 0 0 0 0 0 0 0 0 0 0 0 0 0 0 0 0 0
0 0 0 0 0 0 0 0 0 0 0 0 0 0 0 0 0 0 0 0 0 0 0 0 0 0 0 0 0 0 0 0 0 0 0 0 0 0 0 0 0 0 0
0 0 0 0 0 0 0 0 0 0 0 0 0 0 0 0 0 0 0 0 0 0 0 0 0 0 0 0 0 0 0 0 0 0 0 0 0 0 0 0 0 0 0
0 0 0 0 0 0 0 0 0 0 0 0 0 0 0 0 0 0 0 0 0 0 0 0 0 0 0 0 0 0 0 0 0 0 0 0 0 0 0 0 0 0 0
0 0 0 0 0 0 0 0 0 0 0 0 0 0 0 0 0 0 0 0 0 0 0 0 0 0 0 0 0 0 0 0 0 0 0 0 0 0 0 0 0 0 0
0 0 0 0 0 0 0 0 0 0 0 0 0 0 0 0 0 0 0 0 0 0 0 0 0 0 0 0 0 0 0 0 0 0 0 0 0 0 0 0 0 0 0
0 0 0 0 0 0 0 0 0 0 0 0 0 0 0 0 0 0 0 0 0 0 0 0 0 0 0 0 0 0 0 0 0 0 0 0 0 0 0 0 0 0 0
0 0 0 0 0 0 0 0 0 0 0 0 0 0 0 0 0 0 0 0 0 0 0 0 0 0 0 0 0 0 0 0 0 0 0 0 0 0 0 0 0 0 0
0 0 0 0 0 0 0 0 0 0 0 0 0 0 0 0 0 0 0 0 0 0 0 0 0 0 0 0 0 0 0 0 0 0 0 0 0 0 0 0 0 0 0
0 0 0 0 0 0 0 0 0 0 0 0 0 0 0 0 0 0 0 0 0 0 0 0 0 0 0 0 0 0 0 0 0 0 0 0 0 0 0 0 0 0 0
0 0 0 0 0 0 0 0 0 0 0 0 0 0 0 0 0 0 0 0 0 0 0 0 0 0 0 0 0 0 0 0 0 0 0 0 0 0 0 0 0 0 0
0 0 0 0 0 0 0 0 0 0 0 0 0 0 0 0 0 0 0 0 0 0 0 0 0 0 0 0 0 0 0 0 0 0 0 0 0 0 0 0 0 0 0
0 0 0 0 0 0 0 0 0 0 0 0 0 0 0 0 0 0 0 0 0 0 0 0 0 0 0 0 0 0 0 0 0 0 0 0 0 0 0 0 0 0 0
Wind_Speed
5 4 4 4 4 3 3 3 3 4 4 4 3 4 4 4 5 4 4 9 10 11 11 11 10 9 9 8 8 7 6 6 6 5 5 5 5 5 5 5 6 6 6
6 6 5 5 5 4 4 4 5 4 4 3 4 4 5 5 5 5 4 6 10 11 12 12 11 11 10 10 9 7 7 6 5 4 4 4 3 3 3 3 4 4 4
7 7 6 6 5 5 5 4 4 3 3 3 4 5 4 5 6 6 5 4 5 10 12 13 13 12 12 11 10 9 8 6 5 4 3 3 2 1 1 2 2 3 3
9 7 6 6 6 5 5 4 4 4 4 3 3 3 3 4 6 6 5 5 4 5 8 13 13 13 13 12 12 11 9 8 6 5 4 3 2 1 1 1 2 3 3
9 7 6 6 6 5 5 5 4 4 4 4 4 3 3 4 5 6 6 7 6 6 5 10 12 13 13 14 13 12 11 9 8 6 5 4 3 2 2 3 3 4 4
8 7 6 6 6 5 5 5 5 4 4 4 3 3 3 3 3 5 7 6 6 7 7 6 6 8 13 14 15 14 12 11 9 8 6 5 4 4 4 5 5 5 6
7 7 5 6 6 7 7 7 5 5 4 3 2 2 3 3 4 4 5 5 7 7 7 7 5 4 5 13 15 15 13 12 11 9 8 7 6 5 6 6 7 7 7
7 6 7 6 7 6 6 7 6 4 4 4 4 2 3 4 4 5 4 5 6 5 7 8 6 6 5 4 8 13 13 12 11 10 9 8 7 7 7 8 8 8 9
6 6 7 7 7 7 7 8 8 7 6 5 4 5 4 6 3 3 4 4 4 4 4 4 6 6 6 4 4 8 9 9 10 10 9 8 8 8 9 9 9 10 10
5 5 6 7 7 7 8 8 8 7 7 6 4 4 4 4 4 3 2 2 3 4 4 4 5 5 5 4 6 9 9 9 10 9 9 9 9 10 10 10 10 11 11
3 4 5 5 6 6 7 7 7 8 7 7 6 4 4 3 3 3 4 2 1 2 3 3 3 4 5 4 4 8 11 11 11 11 11 10 11 11 11 11 11 11 12
2 3 4 4 4 5 6 7 7 8 8 7 7 6 5 4 5 6 7 5 4 2 1 1 2 2 3 3 6 10 11 12 12 12 12 12 12 11 11 12 12 13 13
2 3 3 3 4 4 4 5 5 6 7 7 7 6 6 5 3 3 4 4 3 1 0 1 1 1 2 3 4 10 10 11 11 12 13 13 12 11 11 12 13 13 14
2 2 3 3 3 3 3 3 3 3 3 4 5 5 4 3 3 3 3 3 2 2 2 3 0 1 1 2 4 9 6 11 11 11 11 12 12 12 12 12 13 14 14
1 1 1 1 2 2 1 1 1 1 1 1 2 2 2 1 1 1 2 3 4 4 4 3 2 1 1 1 4 3 2 7 9 10 11 11 12 12 13 14 14 14 15
2 1 1 1 1 1 1 1 1 1 2 1 1 2 1 1 1 1 1 0 1 3 2 1 1 1 1 2 4 3 3 6 8 10 11 11 12 13 13 14 14 14 15
3 3 3 3 3 3 3 3 3 3 3 3 3 3 3 3 2 2 2 2 1 1 2 1 1 1 1 1 1 1 1 2 3 8 11 12 12 12 13 14 14 15 15
5 5 4 5 5 5 5 4 4 4 4 4 4 4 4 3 4 3 2 2 2 1 1 2 1 1 1 1 1 1 1 2 2 7 10 11 12 13 13 14 14 15 15
6 6 6 6 6 6 6 6 6 6 6 6 5 5 4 4 4 3 3 3 2 2 2 2 1 1 1 0 0 1 1 1 2 5 9 11 12 12 13 14 14 15 15
6 6 6 6 6 6 6 6 6 7 7 7 6 5 5 4 4 4 3 3 3 3 3 2 1 1 1 1 1 0 1 1 2 3 6 6 9 12 13 14 15 15 15
6 6 6 6 6 5 6 6 6 7 7 7 6 5 5 6 6 4 3 2 3 2 2 2 1 1 0 0 0 1 1 2 3 2 2 3 4 4 6 10 13 14 15
6 6 6 6 6 6 10 11 8 6 6 6 6 5 5 6 7 7 6 5 4 2 1 1 1 0 1 1 1 1 1 1 3 2 2 4 3 5 5 4 11 15 15
6 6 6 6 6 8 11 11 11 6 6 5 4 4 3 4 5 3 5 7 6 5 3 1 1 2 2 2 2 2 2 3 4 3 2 5 3 5 5 7 14 16 15
5 5 5 5 5 7 11 11 11 7 5 5 4 3 3 2 2 3 3 3 3 3 2 1 2 3 3 3 4 4 3 3 4 3 3 4 3 4 5 5 13 14 12
4 4 4 5 5 5 9 9 9 4 4 4 3 3 2 1 1 3 3 1 2 3 3 3 3 4 5 6 4 1 1 2 3 3 2 3 3 4 5 5 6 9 10
4 4 4 4 3 3 6 7 7 3 3 2 2 2 2 1 2 3 1 0 1 3 2 3 3 5 4 4 5 0 2 2 2 3 2 2 2 3 6 4 3 4 6
Wind_Direction
176 177 180 181 183 181 185 192 200 212 227 240 235 218 203 192 187 184 187 183 179 178 178 179 178 177 174 168 162 156 149 141 132 124 114 103 92 84 78 70 63 57 53
181 183 186 190 194 194 195 198 205 210 219 221 228 221 205 191 191 187 190 189 187 185 187 189 190 190 187 183 178 173 168 162 154 144 133 119 104 85 73 64 55 45 38
187 187 190 196 201 199 199 201 211 212 220 220 222 217 203 194 191 191 190 192 193 195 196 199 198 198 198 195 191 188 185 181 176 170 162 151 138 115 69 41 26 18 13
190 190 194 200 197 195 196 199 202 206 220 219 218 216 205 197 198 198 195 195 195 198 206 207 205 205 205 206 203 198 195 193 193 194 196 196 199 222 282 328 337 341 341
194 193 198 199 191 194 198 204 202 196 210 219 221 220 213 204 203 200 202 204 203 200 202 211 207 207 209 212 212 208 203 201 203 206 211 218 234 256 276 288 299 307 312
195 195 199 199 191 195 202 201 200 202 203 202 215 228 233 229 216 210 208 208 209 209 205 206 204 209 209 212 217 215 211 207 208 213 219 225 239 259 275 282 288 294 299
199 198 202 199 197 204 206 201 195 202 210 169 167 274 292 255 234 226 215 210 212 211 207 209 203 200 209 214 217 220 219 215 213 217 222 229 241 258 271 280 287 291 296
207 207 207 207 204 207 210 206 197 195 201 176 167 174 274 297 260 229 215 217 217 207 210 210 204 202 199 200 214 217 221 222 222 223 225 233 245 258 270 277 283 288 291
213 214 215 213 211 209 215 213 205 201 209 205 190 173 190 229 266 277 237 226 213 208 215 208 208 206 200 196 201 213 211 219 229 236 237 242 252 261 267 274 280 286 290
227 224 221 216 216 216 220 218 211 208 202 208 214 220 208 179 192 259 275 242 215 213 212 208 204 202 197 190 195 194 195 207 225 236 245 251 258 266 271 276 282 287 292
238 238 232 225 223 221 223 221 215 212 211 211 203 198 215 217 203 212 255 258 250 228 216 211 200 194 190 185 184 193 196 206 224 238 247 254 262 269 276 282 287 291 293
246 250 247 238 233 228 226 225 222 216 218 218 214 204 193 192 200 207 231 232 228 223 205 202 199 192 183 177 188 192 199 210 226 240 250 256 263 269 275 280 285 290 292
246 256 248 246 243 240 236 229 224 224 222 219 220 220 218 220 197 198 218 224 220 222 243 216 206 173 172 158 178 187 201 212 223 235 248 259 267 276 283 287 289 291 294
242 252 247 248 251 247 239 225 220 224 220 221 224 220 218 223 210 202 200 193 218 236 243 236 161 173 160 157 181 185 203 217 227 238 252 266 277 283 284 285 286 288 290
263 260 248 255 264 259 239 207 199 209 185 195 210 205 209 208 189 203 197 189 202 230 241 210 188 146 141 143 183 173 176 221 235 247 257 266 274 279 280 281 283 285 286
17 27 26 21 9 16 24 90 98 98 107 98 108 116 110 91 82 77 126 156 201 218 235 127 143 112 144 162 181 163 193 223 244 257 264 269 273 276 278 280 282 282 282
38 47 50 56 56 51 51 71 75 78 91 82 78 94 91 85 91 82 81 84 73 140 209 103 72 73 119 139 144 149 186 225 252 267 273 276 278 279 280 281 281 281 281
46 50 56 61 59 54 55 68 73 74 80 80 76 83 84 87 85 79 84 87 85 75 133 152 104 87 125 173 180 217 237 247 246 271 279 282 285 285 284 283 283 283 283
55 53 58 62 60 59 61 64 71 72 74 75 77 85 89 94 87 78 80 81 77 70 73 111 106 67 52 75 97 289 278 294 279 282 288 289 288 288 289 290 290 289 288
65 61 63 65 65 65 65 69 74 75 74 71 70 75 77 85 95 95 85 80 81 79 79 91 90 75 56 42 74 333 309 304 289 289 289 289 293 298 297 295 294 294 292
70 69 71 69 68 70 74 80 79 82 83 79 71 68 72 83 91 94 99 99 95 87 82 82 86 71 38 14 309 292 288 305 289 276 293 287 292 285 288 291 293 289 286
71 71 70 71 69 73 85 88 90 83 83 82 75 63 64 66 75 78 86 89 92 99 111 118 127 177 253 248 239 255 278 326 301 287 292 282 266 272 271 262 280 287 288
77 74 71 73 74 80 85 88 91 87 81 78 75 68 63 62 63 59 63 56 43 41 51 138 181 225 229 225 213 244 243 236 248 264 287 282 264 270 270 277 291 292 291
84 81 77 73 73 80 88 90 91 81 76 71 69 74 77 55 52 83 76 55 30 10 355 20 201 224 231 229 216 219 231 255 262 253 222 270 282 273 282 279 289 289 289
90 84 81 77 75 78 89 94 92 80 76 64 58 66 82 37 17 65 86 55 5 333 337 339 315 289 282 287 276 222 250 281 291 278 222 242 284 293 285 278 282 290 294
104 96 87 80 81 78 95 99 100 93 85 64 41 28 29 12 358 27 109 135 293 287 300 331 339 340 338 327 329 238 191 213 259 283 259 246 281 319 308 283 258 264 276